Regional Weather Roundup
Issued by NWS

Home | Current Version | Previous Version | Graphics & Text | Print | Product List | Glossary On
Versions: 1 2 3 4 5 6 7 8 9 10 11 12 13 14 15 16 17 18 19 20 21 22 23 24 25 26 27 28 29 30 31 32 33 34 35 36 37 38 39 40 41 42 43 44 45 46 47 48 49 50
263
ASUS45 KSLC 230910
RWRUT

UTAH REGIONAL WEATHER ROUNDUP
NATIONAL WEATHER SERVICE SALT LAKE CITY UT
300 AM MDT MON OCT 23 2017

UTZ001>011-023>025-231000-

NORTHERN UTAH

CITY           SKY/WX    TMP DP  RH WIND       PRES   REMARKS
BRIGHAM CITY   MOCLDY    53  36  51 NW7       30.46R
HILL AFB       CLOUDY    53  34  49 N7        30.45R
LOGAN          CLOUDY    53  39  59 NE6       30.45S
OGDEN          MOCLDY    51  35  54 CALM      30.44R
SALT LAKE CITY PTCLDY    51  35  54 CALM      30.45R
TOOELE VALLEY  PTCLDY    39  32  75 CALM      30.46R
WENDOVER       PTCLDY    56  34  43 W5        30.45R
WEST JORDAN    CLEAR     44  33  64 CALM      30.46R

$$

UTZ011>015-024>027-231000-

CENTRAL/NORTHEAST UTAH

CITY           SKY/WX    TMP DP  RH WIND       PRES   REMARKS
PROVO AIRPORT  CLEAR     39  31  72 E5        30.45R
MOAB/CANYONLAN CLEAR     41  18  39 SW3       30.38R
DELTA          CLEAR     39  27  60 CALM      30.44R
PRICE          PTCLDY    41  19  41 NE5       30.43R
ROOSEVELT      CLOUDY    41  27  56 CALM      30.40F
VERNAL         CLOUDY    41  26  55 NW6       30.40R

$$

UTZ013>016-019>022-027-231000-

SOUTHERN UTAH

CITY           SKY/WX    TMP DP  RH WIND       PRES   REMARKS
BRYCE CANYON   CLEAR     31  17  56 W5        30.54R WCI  26
CEDAR CITY     PTCLDY    43  20  39 CALM      30.44R
MILFORD        CLEAR     41  20  43 SE3       30.45R
ST GEORGE      SUNNY     52  24  33 SE5       30.34S
HANKSVILLE     CLEAR     37  19  48 E3        30.42R
BLANDING         N/A     45  19  35 CALM      30.49S

$$

REGIONAL REPORTS     COLORADO/ARIZONA

CITY           SKY/WX    TMP DP  RH WIND       PRES   REMARKS
CRAIG, CO      CLOUDY    45  31  58 CALM      30.43R
GRAND JUNCTION CLOUDY    41  24  51 E3        30.41R
RIFLE, CO      CLOUDY    39  31  72 E3        30.46R
MONTROSE, CO   CLOUDY    36  24  62 SE5       30.47S WCI  32
CORTEZ, CO     CLOUDY    33  22  63 NE10      30.43R WCI  25
COLORADO CITY    N/A     37  27  65 SE3       30.44S
PAGE, AZ       CLEAR     54  22  28 CALM      30.38R
GRAND CANYON   PTCLDY    29  13  51 NE7       30.49R WCI  22
KINGMAN, AZ    CLEAR     51  26  37 E6        30.30S
FLAGSTAFF, AZ  PTCLDY    28  12  51 CALM      30.49S

$$

REGIONAL REPORTS    NEVADA/IDAHO/WYOMING

CITY           SKY/WX    TMP DP  RH WIND       PRES   REMARKS
LAS VEGAS, NV  CLEAR     64  29  26 CALM      30.26S
ELY, NY        CLEAR     31  14  49 CALM      30.55R
ELKO, NV       CLEAR     40  29  64 NE5       30.52R
POCATELLO, ID  CLOUDY    47  43  86 SW15      30.46R
BURLEY, ID     PTCLDY    47  42  83 W9        30.47R
FORT BRIDGER,    N/A     47  32  55 W13       30.49R
EVANSTON, WY   CLOUDY    45  31  58 W10       30.49R
ROCK SPRINGS,  CLOUDY    46  29  51 W25G31    30.39S
KEMMERER, WY   CLOUDY    43  32  65 W26G32    30.43S

$$




USA.gov is the U.S. government's official web portal to all federal, state and local government web resources and services.